Regional Weather Roundup
Issued by NWS

Home | Current Version | Previous Version | Text Only | Print | Product List | Glossary On
Versions: 1 2 3 4 5 6 7 8 9 10 11 12 13 14 15 16 17 18 19 20 21 22 23 24 25 26 27 28 29 30 31 32 33 34 35 36 37 38 39 40 41 42 43 44 45 46 47 48 49 50
000
ASUS43 KDTX 310710
RWRMI
MICHIGAN HOURLY REGIONAL WEATHER ROUNDUP
NATIONAL WEATHER SERVICE DETROIT/PONTIAC MI
300 AM EDT THU JUL 31 2014

NOTE: "FAIR" INDICATES FEW OR NO CLOUDS BELOW 12,000 FEET WITH NO
SIGNIFICANT WEATHER AND/OR OBSTRUCTION TO VISIBILITY.

MIZ047>049-052>055-059>063-066>070-074>076-081>083-310800-
SOUTHEAST LOWER MICHIGAN

CITY           SKY/WX    TMP DP  RH WIND       PRES   REMARKS
ADRIAN         CLEAR     55  54  96 W3        30.02F
ALMA           PTCLDY    52  49  90 CALM      30.00F
ANN ARBOR      FOG       50  48  93 W5        30.01S VSB 3/4
BAD AXE        MOCLDY    55  54  95 N6        29.98S
CARO             N/A     56  56 100 CALM      29.97S FOG
DETROIT CITY   PTCLDY    63  54  72 W8        29.98F
DETROIT        CLOUDY    59  55  87 SW6       30.00F
FLINT          PTCLDY    56  50  80 W5        29.99S
GROSSE ILE     PTCLDY    61  57  88 W6        29.99S
HILLSDALE      CLEAR     56  55  97 CALM      30.03S
HOWELL         CLEAR     52  50  93 SW5       30.00S

CITY           SKY/WX    TMP DP  RH WIND       PRES   REMARKS
JACKSON        CLEAR     52  49  89 CALM      30.02S
LAMBERTVILLE   CLEAR     57  54  88 CALM      30.01F
LANSING        PTCLDY    53  49  86 SW3       30.01F
LAPEER         FAIR      57  55  92 W3        29.98S
MASON          CLEAR     48  46  93 CALM      30.01S
MONROE         PTCLDY    57  55  94 W5        29.99F FOG
MT. CLEMENS    PTCLDY    60  57  88 SW8       29.96F
PONTIAC        PTCLDY    58  52  80 W8        29.98F
PORT HOPE        N/A     60  55  83 SE6       29.96F
PORT HURON     PTCLDY    57  57 100 CALM      29.97S
TRI CITIES     PTCLDY    57  52  83 SW5       29.99F
TROY           PTCLDY    60  55  84 SW5       29.99F
SAGINAW HB     MOCLDY    57  55  94 W5        29.98S
$$
MIZ043>046-050>051-056>058-064>065-071>073-077>080-310800-
SOUTHWEST LOWER MICHIGAN

CITY           SKY/WX    TMP DP  RH WIND       PRES   REMARKS
BATTLE CREEK   CLEAR     54  50  86 SW3       30.03S
BENTON HARBOR  CLEAR     52  51  97 CALM      30.03S
BIG RAPIDS     MOCLDY    53  53 100 CALM      29.99F
COLDWATER      CLEAR     54  53  96 CALM      30.03F
FREMONT        PTSUNNY   55  52  92 CALM      30.00R
HOLLAND        PTCLDY    56  53  90 CALM      30.01F
GRAND RAPIDS   PTCLDY    56  52  86 CALM      30.01F
IONIA          FAIR      54  49  85 CALM      30.00S
KALAMAZOO      CLEAR     56  51  84 CALM      30.03S
LUDINGTON      PTCLDY    57  52  84 SW8       29.98F
MARSHALL       CLEAR     52  51  97 CALM      30.02S
MOUNT PLEASANT PTCLDY    55  51  86 CALM      29.98F
MUSKEGON       MOCLDY    60  56  86 SW7       30.00F
SOUTH HAVEN    CLEAR     50  50 100 CALM      30.02F
$$
MIZ016>042-310800-
NORTHERN LOWER MICHIGAN

CITY           SKY/WX    TMP DP  RH WIND       PRES   REMARKS
ALPENA         CLOUDY    56  54  93 SW3       29.97F
BEAVER ISLAND  MOCLDY    51  51 100 CALM      29.95F
BELLAIRE       CLOUDY    56  52  86 CALM      29.96F
CADILLAC       CLOUDY    52  50  95 CALM      29.98F
CHARLEVOIX     MOCLDY    58  55  88 S3        29.98F
FRANKFORT      PTCLDY    59  52  78 CALM      29.97F
GAYLORD        MOCLDY    54  52  93 SW3       29.97F
GRAYLING       CLOUDY    54  52  93 CALM      29.99S
HARBOR SPRINGS MOCLDY    55  54  95 CALM      29.96S
HOUGHTON LAKE  CLOUDY    52  50  93 CALM      29.98F
MANISTEE       PTCLDY    52  48  87 E3        29.98F
OSCODA         CLOUDY    53  51  95 CALM      29.97S
PELLSTON       CLOUDY    53  52  96 CALM      29.96F
ROGERS CITY    CLOUDY    56  55  97 SW3       29.97F
TRAVERSE CITY  MOCLDY    59  49  69 SE3       29.95F
$$
MIZ007>008-015-310800-
EASTERN UPPER MICHIGAN

CITY           SKY/WX    TMP DP  RH WIND       PRES   REMARKS
KINROSS        CLOUDY    54  54 100 CALM      29.94F
MACKINAC ISLAN CLOUDY    57  56  97 SW5       29.94F
NEWBERRY       MOCLDY    51  51  98 W3        29.94S
S. S. MARIE    CLOUDY    54  51  90 CALM      29.93F
MUNISING         N/A     52  49  89 S7        29.93F
$$
MIZ004>006-011>014-085-310800-
CENTRAL UPPER MICHIGAN

CITY           SKY/WX    TMP DP  RH WIND       PRES   REMARKS
MANISTIQUE     PTCLDY    47  47  99 CALM      29.94F
ESCANABA       CLOUDY    48  45  87 CALM      29.95F VSB 1/2
MENOMINEE      CLEAR     55  54  94 CALM      29.95F
SAWYER-GWINN   CLEAR     50  49  95 CALM      29.95F
$$
MIZ001>003-009>011-084-310800-
WESTERN UPPER MICHIGAN

CITY           SKY/WX    TMP DP  RH WIND       PRES   REMARKS
IRON MOUNTAIN  CLEAR     52  50  93 N3        29.96F
HOUGHTON       MOCLDY    58  55  90 NW9       29.93F
COPPER HARBOR    N/A     60  54  80 CALM      29.91F
IRONWOOD       CLEAR     52  52 100 CALM      29.95F
$$

ABBREVIATIONS USED IN REMARKS
   TC - TEMPERATURE IN CELSIUS
  WCI - WIND CHILL INDEX
   HX - HEAT INDEX
  VSB - VISIBILITY




USA.gov is the U.S. government's official web portal to all federal, state and local government web resources and services.